EWG92F LFPG-EDDH

Flight info

Callsign EWG92F
Flight time 1h 14m
Altitude 38000
Route NURMO DCT CMB DCT VEKIN DCT ADUTO N873 VICOT/N0443F390 DCT PABCO M105 RIBSO RIBSO7A
Aircraft A20N/M-SDE2E3FGHIRWXY/LB1

Departure

Time 2026-04-30 20:29
Airport Charles de Gaulle International Airport (LFPG)

Arrival

Time 2026-04-30 21:43
Airport Hamburg Helmut Schmidt Airport (EDDH)
Time Latitude Longitude Altitude Speed Heading
2026-04-30 19:53 49.01708 2.54089 346 ft 0 kts 204°
2026-04-30 20:17 49.01711 2.54090 346 ft 3 kts 204°
2026-04-30 20:17 49.01734 2.54106 356 ft 3 kts 204°
2026-04-30 20:17 49.01751 2.54118 356 ft 4 kts 204°
2026-04-30 20:17 49.01777 2.54135 359 ft 4 kts 205°
2026-04-30 20:18 49.01800 2.54154 361 ft 4 kts 221°
2026-04-30 20:18 49.01812 2.54182 361 ft 3 kts 267°
2026-04-30 20:18 49.01813 2.54208 361 ft 1 kts 267°
2026-04-30 20:22 49.01812 2.54198 362 ft 2 kts 266°
2026-04-30 20:22 49.01810 2.54154 363 ft 6 kts 265°
2026-04-30 20:22 49.01806 2.54080 354 ft 8 kts 265°
2026-04-30 20:22 49.01801 2.53987 359 ft 11 kts 265°
2026-04-30 20:23 49.01794 2.53856 356 ft 13 kts 265°
2026-04-30 20:23 49.01786 2.53718 362 ft 12 kts 265°
2026-04-30 20:23 49.01779 2.53584 357 ft 13 kts 265°
2026-04-30 20:23 49.01771 2.53445 354 ft 13 kts 265°
2026-04-30 20:24 49.01763 2.53301 354 ft 13 kts 265°
2026-04-30 20:24 49.01757 2.53174 360 ft 13 kts 266°
2026-04-30 20:24 49.01750 2.53034 354 ft 12 kts 265°
2026-04-30 20:24 49.01743 2.52895 360 ft 14 kts 265°
2026-04-30 20:25 49.01728 2.52617 361 ft 15 kts 265°
2026-04-30 20:25 49.01721 2.52490 354 ft 7 kts 265°
2026-04-30 20:26 49.01801 2.52366 354 ft 13 kts 355°
2026-04-30 20:26 49.01963 2.52346 358 ft 0 kts 355°
2026-04-30 20:27 49.02004 2.52340 361 ft 7 kts 355°
2026-04-30 20:27 49.02121 2.52426 359 ft 12 kts 78°
2026-04-30 20:28 49.02167 2.53235 357 ft 107 kts 85°
2026-04-30 20:28 49.02374 2.56617 790 ft 195 kts 86°
2026-04-30 20:29 49.02619 2.61382 2141 ft 251 kts 89°
2026-04-30 20:30 49.03083 2.70377 4525 ft 316 kts 87°
2026-04-30 20:30 49.05687 2.79159 5488 ft 298 kts 32°
2026-04-30 20:31 49.11418 2.79985 5507 ft 283 kts 356°
2026-04-30 20:32 49.17278 2.79587 7001 ft 284 kts 358°
2026-04-30 20:32 49.21284 2.79346 8491 ft 290 kts 358°
2026-04-30 20:33 49.23312 2.79222 9254 ft 293 kts 358°
2026-04-30 20:33 49.27450 2.78968 10762 ft 302 kts 359°
2026-04-30 20:33 49.29561 2.78838 11491 ft 313 kts 359°
2026-04-30 20:34 49.34059 2.78560 13019 ft 332 kts 359°
2026-04-30 20:34 49.38801 2.78264 14543 ft 348 kts 360°
2026-04-30 20:35 49.41249 2.78112 15266 ft 355 kts 360°
2026-04-30 20:35 49.43735 2.77958 16012 ft 361 kts 360°
2026-04-30 20:35 49.48811 2.77642 17531 ft 369 kts 360°
2026-04-30 20:36 49.51394 2.77481 18326 ft 373 kts 360°
2026-04-30 20:36 49.54014 2.77318 18908 ft 382 kts 360°
2026-04-30 20:36 49.59460 2.76980 19206 ft 395 kts 360°
2026-04-30 20:37 49.62164 2.76809 19212 ft 394 kts 360°
2026-04-30 20:37 49.64904 2.76636 19213 ft 394 kts 360°
2026-04-30 20:37 49.67652 2.76463 19214 ft 394 kts 360°
2026-04-30 20:37 49.70396 2.76291 19218 ft 394 kts 360°
2026-04-30 20:38 49.73144 2.76118 19214 ft 394 kts 360°
2026-04-30 20:38 49.75887 2.75945 19211 ft 394 kts 360°
2026-04-30 20:38 49.78635 2.75773 19213 ft 394 kts 360°
2026-04-30 20:39 49.83962 2.77108 19235 ft 387 kts 26°
2026-04-30 20:39 49.86279 2.79091 19237 ft 384 kts 35°
2026-04-30 20:39 49.88535 2.81315 19234 ft 384 kts 35°
2026-04-30 20:40 49.93050 2.85739 19558 ft 385 kts 35°
2026-04-30 20:40 49.95321 2.87965 19917 ft 387 kts 35°
2026-04-30 20:40 49.97606 2.90208 20280 ft 389 kts 35°
2026-04-30 20:41 50.02218 2.94746 21031 ft 393 kts 35°
2026-04-30 20:41 50.04532 2.97026 21404 ft 395 kts 36°
2026-04-30 20:41 50.06856 2.99321 21787 ft 397 kts 36°
2026-04-30 20:41 50.09164 3.01602 22166 ft 398 kts 36°
2026-04-30 20:42 50.11511 3.03923 22570 ft 401 kts 36°
2026-04-30 20:42 50.13876 3.06264 22966 ft 403 kts 36°
2026-04-30 20:42 50.18630 3.10980 23787 ft 407 kts 36°
2026-04-30 20:43 50.21019 3.13354 24141 ft 409 kts 36°
2026-04-30 20:43 50.23499 3.15607 24482 ft 414 kts 30°
2026-04-30 20:43 50.26142 3.17470 24835 ft 417 kts 27°
2026-04-30 20:44 50.31448 3.21177 25552 ft 422 kts 27°
2026-04-30 20:44 50.34140 3.23070 25917 ft 425 kts 27°
2026-04-30 20:44 50.39567 3.26891 26669 ft 430 kts 27°
2026-04-30 20:45 50.44992 3.30943 27432 ft 434 kts 30°
2026-04-30 20:45 50.47695 3.33098 27826 ft 436 kts 30°
2026-04-30 20:45 50.50379 3.35239 28225 ft 439 kts 30°
2026-04-30 20:46 50.58814 3.41292 29454 ft 449 kts 26°
2026-04-30 20:46 50.61699 3.43224 29872 ft 451 kts 26°
2026-04-30 20:47 50.67484 3.47165 30672 ft 454 kts 26°
2026-04-30 20:47 50.70372 3.49212 31036 ft 455 kts 30°
2026-04-30 20:48 50.75279 3.55327 31799 ft 449 kts 50°
2026-04-30 20:48 50.77414 3.58933 32183 ft 450 kts 50°
2026-04-30 20:48 50.79546 3.62544 32568 ft 450 kts 50°
2026-04-30 20:48 50.81678 3.66166 32951 ft 449 kts 50°
2026-04-30 20:49 50.83775 3.69737 33360 ft 448 kts 49°
2026-04-30 20:49 50.85895 3.73351 33764 ft 447 kts 49°
2026-04-30 20:49 50.88007 3.76957 34179 ft 446 kts 49°
2026-04-30 20:50 50.92220 3.84167 34913 ft 444 kts 49°
2026-04-30 20:50 50.94313 3.87760 35279 ft 442 kts 49°
2026-04-30 20:50 50.96397 3.91343 35650 ft 440 kts 49°
2026-04-30 20:50 50.98474 3.94920 36033 ft 438 kts 49°
2026-04-30 20:51 51.00532 3.98470 36417 ft 435 kts 49°
2026-04-30 20:51 51.04585 4.05475 37202 ft 429 kts 49°
2026-04-30 20:51 51.06603 4.08969 37607 ft 426 kts 49°
2026-04-30 20:52 51.08597 4.12429 38019 ft 422 kts 49°
2026-04-30 20:52 51.10566 4.15849 38441 ft 417 kts 49°
2026-04-30 20:52 51.14446 4.22599 39170 ft 409 kts 49°
2026-04-30 20:53 51.16346 4.25914 39270 ft 411 kts 49°
2026-04-30 20:53 51.20242 4.32717 39292 ft 420 kts 49°
2026-04-30 20:54 51.26252 4.43197 39292 ft 433 kts 49°
2026-04-30 20:55 51.32371 4.53896 39289 ft 435 kts 49°
2026-04-30 20:55 51.36446 4.61051 39291 ft 435 kts 49°
2026-04-30 20:56 51.42558 4.71833 39287 ft 435 kts 49°
2026-04-30 20:57 51.48620 4.82574 39291 ft 435 kts 49°
2026-04-30 20:57 51.52677 4.89788 39298 ft 435 kts 49°
2026-04-30 20:58 51.58750 5.00626 39312 ft 435 kts 49°
2026-04-30 20:58 51.62774 5.07833 39312 ft 435 kts 49°
2026-04-30 20:59 51.68810 5.18682 39309 ft 433 kts 49°
2026-04-30 21:00 51.76837 5.33183 39313 ft 432 kts 50°
2026-04-30 21:01 51.82818 5.44042 39318 ft 432 kts 50°
2026-04-30 21:02 51.88796 5.54941 39320 ft 431 kts 50°
2026-04-30 21:02 51.92769 5.62214 39344 ft 431 kts 50°
2026-04-30 21:03 51.96732 5.69488 39341 ft 430 kts 50°
2026-04-30 21:03 52.00693 5.76780 39347 ft 430 kts 50°
2026-04-30 21:04 52.04639 5.84065 39347 ft 430 kts 50°
2026-04-30 21:04 52.10535 5.94991 39347 ft 430 kts 50°
2026-04-30 21:05 52.14480 6.02326 39349 ft 430 kts 50°
2026-04-30 21:05 52.18417 6.09670 39348 ft 430 kts 50°
2026-04-30 21:06 52.22332 6.16992 39350 ft 430 kts 50°
2026-04-30 21:06 52.26254 6.24353 39356 ft 430 kts 50°
2026-04-30 21:07 52.30175 6.31731 39361 ft 430 kts 50°
2026-04-30 21:07 52.33436 6.37883 39320 ft 430 kts 50°
2026-04-30 21:08 52.35395 6.41585 39044 ft 431 kts 50°
2026-04-30 21:08 52.37359 6.45303 38398 ft 432 kts 50°
2026-04-30 21:08 52.39327 6.49036 37589 ft 434 kts 50°
2026-04-30 21:08 52.41303 6.52789 36773 ft 435 kts 49°
2026-04-30 21:09 52.43286 6.56561 36000 ft 436 kts 49°
2026-04-30 21:09 52.45268 6.60336 35248 ft 437 kts 49°
2026-04-30 21:09 52.47252 6.64120 34507 ft 437 kts 49°
2026-04-30 21:09 52.49233 6.67904 33714 ft 437 kts 49°
2026-04-30 21:10 52.51211 6.71687 32914 ft 437 kts 49°
2026-04-30 21:10 52.53188 6.75475 32131 ft 436 kts 49°
2026-04-30 21:10 52.55159 6.79256 31374 ft 435 kts 50°
2026-04-30 21:10 52.57102 6.82990 30648 ft 437 kts 50°
2026-04-30 21:11 52.59078 6.86795 29832 ft 438 kts 50°
2026-04-30 21:11 52.61057 6.90608 29003 ft 437 kts 50°
2026-04-30 21:11 52.63026 6.94409 28199 ft 435 kts 50°
2026-04-30 21:11 52.64988 6.98203 27407 ft 433 kts 50°
2026-04-30 21:12 52.66937 7.01977 26652 ft 430 kts 50°
2026-04-30 21:12 52.68867 7.05720 25928 ft 427 kts 50°
2026-04-30 21:12 52.70753 7.09382 25455 ft 419 kts 50°
2026-04-30 21:12 52.72612 7.12998 25065 ft 409 kts 50°
2026-04-30 21:13 52.74435 7.16548 24692 ft 401 kts 50°
2026-04-30 21:13 52.76237 7.20063 24322 ft 402 kts 51°
2026-04-30 21:13 52.78052 7.23610 23940 ft 403 kts 51°
2026-04-30 21:13 52.79853 7.27135 23511 ft 399 kts 51°
2026-04-30 21:14 52.81633 7.30620 23073 ft 395 kts 51°
2026-04-30 21:14 52.83399 7.34084 22651 ft 392 kts 51°
2026-04-30 21:14 52.85150 7.37523 22230 ft 389 kts 51°
2026-04-30 21:14 52.86890 7.40945 21817 ft 387 kts 51°
2026-04-30 21:15 52.88615 7.44342 21408 ft 384 kts 51°
2026-04-30 21:15 52.90304 7.47673 21009 ft 381 kts 51°
2026-04-30 21:15 52.92002 7.51026 20612 ft 378 kts 51°
2026-04-30 21:15 52.93685 7.54353 20222 ft 376 kts 51°
2026-04-30 21:16 52.95364 7.57677 19833 ft 373 kts 51°
2026-04-30 21:16 52.97023 7.60965 19449 ft 370 kts 51°
2026-04-30 21:16 52.98614 7.64124 19091 ft 368 kts 51°
2026-04-30 21:16 53.00257 7.67384 18710 ft 366 kts 52°
2026-04-30 21:17 53.01886 7.70622 18297 ft 364 kts 52°
2026-04-30 21:17 53.03485 7.73804 17871 ft 361 kts 52°
2026-04-30 21:17 53.05089 7.77003 17471 ft 359 kts 52°
2026-04-30 21:17 53.06682 7.80187 17043 ft 356 kts 52°
2026-04-30 21:18 53.08264 7.83352 16633 ft 354 kts 52°
2026-04-30 21:18 53.09835 7.86501 16239 ft 352 kts 52°
2026-04-30 21:18 53.11394 7.89630 15840 ft 350 kts 52°
2026-04-30 21:18 53.12947 7.92748 15443 ft 348 kts 53°
2026-04-30 21:19 53.14487 7.95847 15067 ft 346 kts 53°
2026-04-30 21:19 53.16016 7.98924 14682 ft 344 kts 53°
2026-04-30 21:19 53.17538 8.01995 14310 ft 342 kts 53°
2026-04-30 21:19 53.19036 8.05018 13901 ft 340 kts 53°
2026-04-30 21:20 53.20538 8.08056 13484 ft 338 kts 53°
2026-04-30 21:20 53.22034 8.11086 13069 ft 336 kts 53°
2026-04-30 21:20 53.23517 8.14094 12660 ft 334 kts 53°
2026-04-30 21:20 53.24990 8.17085 12260 ft 333 kts 53°
2026-04-30 21:21 53.26457 8.20065 11860 ft 331 kts 53°
2026-04-30 21:21 53.27918 8.23037 11465 ft 329 kts 53°
2026-04-30 21:21 53.30797 8.28903 10700 ft 326 kts 53°
2026-04-30 21:22 53.32232 8.31832 10320 ft 324 kts 53°
2026-04-30 21:22 53.36494 8.40547 9081 ft 319 kts 53°
2026-04-30 21:23 53.37892 8.43411 8667 ft 317 kts 53°
2026-04-30 21:23 53.39285 8.46270 8259 ft 315 kts 53°
2026-04-30 21:23 53.42020 8.51891 7479 ft 311 kts 53°
2026-04-30 21:24 53.43388 8.54707 7095 ft 310 kts 53°
2026-04-30 21:24 53.44741 8.57495 6704 ft 308 kts 53°
2026-04-30 21:24 53.46093 8.60287 6295 ft 307 kts 53°
2026-04-30 21:24 53.47440 8.63071 6039 ft 306 kts 53°
2026-04-30 21:25 53.50132 8.68645 5968 ft 307 kts 53°
2026-04-30 21:25 53.51480 8.71439 5965 ft 308 kts 53°
2026-04-30 21:25 53.52808 8.74196 5965 ft 307 kts 53°
2026-04-30 21:26 53.55496 8.79781 5966 ft 307 kts 53°
2026-04-30 21:26 53.56838 8.82575 5967 ft 307 kts 53°
2026-04-30 21:27 53.59521 8.88171 5967 ft 308 kts 53°
2026-04-30 21:27 53.60866 8.90980 5974 ft 307 kts 53°
2026-04-30 21:27 53.62208 8.93787 5970 ft 307 kts 53°
2026-04-30 21:28 53.64891 8.99408 5969 ft 307 kts 53°
2026-04-30 21:28 53.66233 9.02223 5968 ft 307 kts 53°
2026-04-30 21:28 53.68892 9.07813 5968 ft 307 kts 53°
2026-04-30 21:29 53.70227 9.10622 5969 ft 307 kts 53°
2026-04-30 21:29 53.74234 9.19069 5971 ft 307 kts 53°
2026-04-30 21:30 53.76906 9.24715 5969 ft 307 kts 53°
2026-04-30 21:31 53.79949 9.33932 5968 ft 302 kts 88°
2026-04-30 21:31 53.78716 9.40560 5863 ft 302 kts 123°
2026-04-30 21:32 53.75875 9.45306 5159 ft 300 kts 155°
2026-04-30 21:32 53.73830 9.46088 4776 ft 305 kts 178°
2026-04-30 21:32 53.71754 9.45434 4395 ft 305 kts 201°
2026-04-30 21:32 53.69931 9.43642 4023 ft 301 kts 207°
2026-04-30 21:33 53.67978 9.42618 3637 ft 291 kts 183°
2026-04-30 21:33 53.64213 9.44274 3037 ft 272 kts 156°
2026-04-30 21:33 53.62513 9.45461 2982 ft 254 kts 158°
2026-04-30 21:34 53.60959 9.46388 2977 ft 220 kts 161°
2026-04-30 21:34 53.58188 9.47712 2985 ft 203 kts 165°
2026-04-30 21:34 53.56851 9.48456 2987 ft 202 kts 154°
2026-04-30 21:35 53.55608 9.49522 2987 ft 203 kts 151°
2026-04-30 21:35 53.54367 9.50650 2991 ft 202 kts 151°
2026-04-30 21:35 53.53119 9.51778 2989 ft 202 kts 151°
2026-04-30 21:35 53.51876 9.52880 2990 ft 202 kts 152°
2026-04-30 21:36 53.50627 9.53968 2990 ft 203 kts 152°
2026-04-30 21:36 53.49372 9.55051 2991 ft 202 kts 152°
2026-04-30 21:37 53.45816 9.58098 2993 ft 182 kts 152°
2026-04-30 21:37 53.44907 9.59503 2989 ft 181 kts 117°
2026-04-30 21:37 53.44738 9.61560 2996 ft 183 kts 78°
2026-04-30 21:37 53.45378 9.63396 2998 ft 186 kts 51°
2026-04-30 21:38 53.46221 9.65028 2993 ft 185 kts 50°
2026-04-30 21:38 53.47064 9.66670 2994 ft 185 kts 51°
2026-04-30 21:38 53.47901 9.68322 2959 ft 186 kts 51°
2026-04-30 21:38 53.48734 9.69981 2693 ft 185 kts 51°
2026-04-30 21:39 53.49555 9.71631 2312 ft 183 kts 51°
2026-04-30 21:39 53.50368 9.73267 2042 ft 181 kts 51°
2026-04-30 21:39 53.51169 9.74881 1996 ft 183 kts 52°
2026-04-30 21:39 53.51993 9.76541 1995 ft 182 kts 52°
2026-04-30 21:40 53.52799 9.78162 1996 ft 183 kts 51°
2026-04-30 21:40 53.53613 9.79799 1995 ft 182 kts 51°
2026-04-30 21:40 53.54430 9.81440 1843 ft 183 kts 52°
2026-04-30 21:40 53.55191 9.82967 1566 ft 180 kts 52°
2026-04-30 21:41 53.55995 9.84584 1335 ft 181 kts 52°
2026-04-30 21:41 53.56775 9.86152 1059 ft 177 kts 52°
2026-04-30 21:41 53.57588 9.87793 987 ft 179 kts 52°
2026-04-30 21:41 53.58383 9.89400 1004 ft 179 kts 52°
2026-04-30 21:42 53.59157 9.90968 916 ft 169 kts 52°
2026-04-30 21:42 53.59850 9.92369 721 ft 153 kts 52°
2026-04-30 21:42 53.60477 9.93675 569 ft 165 kts 52°
2026-04-30 21:42 53.61207 9.95133 358 ft 158 kts 51°
2026-04-30 21:43 53.61882 9.96485 120 ft 145 kts 51°
2026-04-30 21:43 53.62300 9.97340 48 ft 135 kts 51°
2026-04-30 21:43 53.62886 9.98525 49 ft 64 kts 50°
2026-04-30 21:43 53.63152 9.99056 51 ft 49 kts 50°
2026-04-30 21:44 53.63350 9.99455 51 ft 36 kts 49°
2026-04-30 21:44 53.63469 9.99693 49 ft 23 kts 50°
2026-04-30 21:44 53.63548 9.99850 50 ft 13 kts 50°
2026-04-30 21:44 53.63578 9.99939 51 ft 10 kts 87°
2026-04-30 21:45 53.63530 10.00042 50 ft 9 kts 140°
2026-04-30 21:45 53.63491 10.00096 50 ft 7 kts 140°
2026-04-30 21:45 53.63445 10.00149 50 ft 9 kts 159°
2026-04-30 21:45 53.63396 10.00159 50 ft 7 kts 175°
2026-04-30 21:46 53.63336 10.00167 50 ft 9 kts 175°
2026-04-30 21:46 53.63284 10.00174 50 ft 5 kts 172°
2026-04-30 21:46 53.63257 10.00207 50 ft 4 kts 121°
2026-04-30 21:46 53.63219 10.00246 50 ft 9 kts 175°
2026-04-30 21:47 53.63179 10.00250 50 ft 7 kts 176°
2026-04-30 21:47 53.63144 10.00254 49 ft 6 kts 176°
2026-04-30 21:47 53.63114 10.00268 49 ft 5 kts 141°
2026-04-30 21:47 53.63111 10.00312 50 ft 4 kts 87°
2026-04-30 21:48 53.63112 10.00349 50 ft 2 kts 87°
2026-04-30 21:48 53.63112 10.00370 47 ft 0 kts 86°